chang-sha , China , ASIA

  • Friday
    November 17

      Light rain

      48 °F

      Northwest

      4~5L 

  • Saturday
    November 18

    Overcast  Overcast

    55 °F  43 °F

    Northwest  Northwest

    4~5L   3~4L 

  • Sunday
    November 19

    Cloudy  Light rain

    52 °F  43 °F

    Northwest  Northwest

    3~4L   3~4L 

  • Monday
    November 20

    Overcast  Overcast

    48 °F  45 °F

    Northwest  Northwest

        

  • Tuesday
    November 21

    Light rain  Cloudy

    48 °F  48 °F

    Northwest  North

        

  • Wednesday
    November 22

    Cloudy  Cloudy

    57 °F  46 °F

    North  North

    3~4L   3~4L 

  • Thursday
    November 23

    Cloudy  Cloudy

    54 °F  46 °F

    North  North

    3~4L    

Date   Weather Temperature Humidity Total_rain Visibility Wind
23:00 Light rain 55°F 97% 0.6mm 999.9km Northeast  3.8m/s
02:00 Light rain 53°F 95.5% 0.6mm 999.9km Northwest  4.2m/s
05:00 Light rain 53°F 95.8% 0.9mm 999.9km Northwest  4.8m/s
08:00 Light rain 53°F 94.6% 0.4mm 999.9km Northeast  4.5m/s
11:00 Overcast 50°F 84.1% 0mm 999.9km Northeast  4.2m/s
14:00 Overcast 49°F 72.1% 0mm 999.9km Northeast  4.0m/s
17:00 Overcast 49°F 71.1% 0mm 999.9km Northeast  3.0m/s
20:00 Overcast 49°F 70.3% 0mm 999.9km Northeast  2.8m/s
23:00 Overcast 47°F 87.5% 0mm 999.9km Northeast  2.4m/s
02:00 Overcast 44°F 87.9% 0mm 999.9km Northeast  2.2m/s
05:00 Overcast 43°F 90% 0mm 999.9km Northeast  2.2m/s
08:00 Overcast 45°F 88.7% 0mm 999.9km Northeast  1.7m/s
11:00 Cloudy 46°F 87.5% 0mm 999.9km Northeast  1.4m/s
14:00 Cloudy 51°F 85.8% 0mm 999.9km Northwest  1.6m/s
17:00 Cloudy 47°F 87.6% 0mm 999.9km Northwest  1.9m/s
20:00 Cloudy 50°F 82.8% 0mm 999.9km Northwest  2.1m/s
23:00 Light rain 43°F 93.9% 0.5mm 999.9km Northwest  2.3m/s
02:00 Light rain 46°F 94.3% 0.7mm 999.9km Northwest  2.5m/s
05:00 Light rain 43°F 97.8% 0.9mm 999.9km Northwest  2.4m/s
08:00 Light rain 44°F 96.1% 0.2mm 999.9km Northwest  2.1m/s
11:00 Overcast 46°F 92.9% 0mm 999.9km Northwest  2.1m/s
14:00 Overcast 48°F 91.5% 0mm 999.9km Northwest  1.3m/s
17:00 Overcast 46°F 91.8% 0mm 999.9km Northwest  1.0m/s
20:00 Overcast 46°F 83.9% 0mm 999.9km Northwest  1.4m/s
23:00 Overcast 46°F 97.4% 0mm 999.9km Northeast  1.2m/s
02:00 Overcast 45°F 96.9% 0mm 999.9km Northwest  1.0m/s
05:00 Overcast 45°F 96.6% 0mm 999.9km Northeast  1.2m/s
08:00 Overcast 46°F 96.2% 0mm 999.9km Northeast  0.9m/s
11:00 Light rain 47°F 88.5% 0.8mm 999.9km Northwest  0.6m/s
14:00 Light rain 48°F 85.7% 0.6mm 999.9km Northeast  0.8m/s
17:00 Light rain 47°F 83.7% 0.7mm 999.9km Northwest  1.1m/s
20:00 Light rain 47°F 81.7% 0.6mm 999.9km Northwest  1.9m/s
23:00 Cloudy 53°F 95.6% 0mm 999.9km Northwest  2.4m/s
02:00 Cloudy 51°F 94.1% 0mm 999.9km Northeast  2.6m/s
05:00 Cloudy 49°F 92.5% 0mm 999.9km Northeast  2.5m/s
08:00 Cloudy 49°F 90.9% 0mm 999.9km Northeast  2.3m/s
11:00 Cloudy 54°F 89.9% 0mm 999.9km Northwest  3.9m/s
14:00 Cloudy 57°F 75.6% 0mm 999.9km Northeast  2.4m/s
17:00 Cloudy 54°F 77.3% 0mm 999.9km Northwest  3.5m/s
20:00 Cloudy 54°F 71.3% 0mm 999.9km Northeast  2.2m/s
23:00 Cloudy 50°F 95.8% 0mm 999.9km Northwest  2.8m/s
02:00 Cloudy 49°F 95.2% 0mm 999.9km Northeast  1.9m/s
05:00 Cloudy 47°F 90.8% 0mm 999.9km Northwest  3.1m/s
08:00 Cloudy 47°F 87.8% 0mm 999.9km Northeast  1.9m/s
11:00 Cloudy 52°F 84.7% 0mm 999.9km Northwest  3.3m/s
14:00 Cloudy 53°F 80.6% 0mm 999.9km Northeast  1.9m/s
17:00 Cloudy 52°F 79.4% 0mm 999.9km Northwest  3.2m/s
20:00 Cloudy 50°F 71.9% 0mm 999.9km Northeast  2.1m/s
23:00 Cloudy 50°F 87.1% 0mm 999.9km Northwest  1.7m/s
02:00 Cloudy 49°F 95% 0mm 999.9km Northeast  1.7m/s
05:00 Cloudy 47°F 88.7% 0mm 999.9km Northwest  1.7m/s